Cloud_Cover
100 100 100 100 100 100 100 100 100 100 100 100 100 100 100 100 100 100 85 100 100 100 100 100 100 100 100 100 76 7 5 5 2 5 3 0 0 2 4 5 5 8 5 1
100 100 100 100 100 100 100 100 100 100 100 100 100 100 100 100 100 100 100 100 46 30 98 90 83 99 100 100 100 24 5 5 5 5 3 0 0 0 3 5 5 5 5 2
100 100 100 100 100 100 100 100 100 100 100 100 100 100 100 100 100 100 100 100 27 85 85 6 76 100 98 100 86 13 24 62 5 4 5 5 2 3 4 2 5 5 0 0
100 100 100 100 100 100 100 100 100 100 100 100 100 100 100 100 100 100 100 100 100 100 100 98 100 100 100 100 100 100 98 72 55 29 5 5 5 5 5 5 5 5 0 0
100 97 100 100 100 100 100 100 100 100 100 100 100 100 100 100 100 100 100 100 100 100 100 100 100 100 100 100 100 100 100 100 100 100 53 34 8 5 0 2 3 5 0 0
100 98 100 100 100 100 100 100 100 100 100 100 100 100 100 100 100 100 100 100 100 100 100 100 34 49 100 100 100 100 100 100 100 100 88 6 12 3 0 0 0 0 0 0
100 100 100 100 100 100 100 100 100 100 100 100 100 100 100 100 100 100 100 100 100 100 100 80 47 98 100 100 100 100 100 100 92 64 74 51 0 0 0 0 0 0 0 0
100 100 100 44 100 100 100 100 100 90 100 100 100 100 100 100 100 100 100 100 100 100 100 100 100 100 100 100 96 100 76 52 57 10 5 2 0 0 0 0 0 0 0 0
100 100 68 75 100 84 5 5 49 100 100 100 100 100 100 100 100 100 100 100 100 100 100 100 100 98 69 92 100 39 69 100 100 75 59 5 0 0 0 0 0 0 0 0
100 100 100 100 100 91 5 5 52 100 100 100 100 100 100 100 100 100 97 100 100 100 31 100 100 99 100 76 92 5 6 94 100 100 100 8 0 0 0 0 0 0 0 0
100 100 100 100 100 75 72 17 10 97 78 86 12 50 99 70 51 77 100 72 80 100 100 92 88 78 18 45 20 16 3 60 85 100 100 99 0 0 0 0 0 0 0 1
100 100 100 100 100 100 94 80 5 97 100 12 80 66 5 5 5 8 19 24 9 93 83 54 71 97 37 5 5 0 5 3 4 0 1 0 0 0 0 0 0 0 0 1
100 100 100 100 100 100 71 100 100 33 96 100 79 92 31 5 5 5 6 56 38 19 14 60 55 56 27 42 32 3 5 3 5 5 0 0 0 5 0 0 0 0 0 3
100 100 100 100 100 100 100 99 68 99 100 100 50 7 5 35 43 17 32 43 74 76 16 5 15 33 88 21 5 5 5 92 16 5 0 3 4 0 0 5 5 5 6 5
100 100 100 100 100 100 100 100 100 58 100 100 86 47 25 39 18 20 78 100 100 100 98 90 59 12 5 5 5 36 3 5 24 1 0 0 2 0 0 3 86 8 43 15
100 100 100 100 100 100 100 100 100 86 73 99 100 11 70 75 22 30 81 81 100 100 100 100 99 56 8 35 77 2 3 3 0 0 5 1 5 0 0 5 6 21 75 100
100 100 100 100 100 100 100 52 51 58 84 100 93 27 5 6 93 94 100 100 100 100 99 100 100 100 100 100 100 5 3 5 5 5 5 3 3 7 5 5 5 31 60 15
100 100 100 100 100 100 100 33 100 100 79 80 86 21 5 4 30 76 100 100 100 93 90 100 100 100 100 100 6 92 4 5 56 6 30 14 60 67 22 3 0 1 5 5
100 100 100 100 100 100 100 97 97 84 59 73 85 72 42 86 42 30 77 92 99 100 38 46 76 85 38 1 4 5 5 0 5 87 100 58 6 5 2 0 0 5 4 1
100 100 100 100 100 100 100 100 100 98 100 98 17 49 70 42 84 98 54 98 88 98 85 100 97 5 0 0 0 0 0 5 92 69 61 100 52 5 4 4 5 1 5 6
100 100 100 100 100 100 100 100 100 95 96 82 9 8 98 30 57 100 99 100 100 97 9 56 5 44 1 0 0 0 0 3 35 65 4 70 27 5 5 20 12 95 100 56
100 100 100 100 100 100 100 100 97 69 40 58 100 82 4 10 6 97 100 100 100 73 86 97 54 81 69 30 34 58 5 5 1 0 0 16 100 100 15 79 100 100 97 92
100 100 100 100 100 100 100 100 89 95 49 77 82 88 89 30 8 6 100 100 100 100 100 36 20 16 99 98 25 5 0 3 5 6 98 99 100 100 100 100 100 100 100 93
100 100 100 99 100 76 91 100 100 100 100 100 99 81 5 5 53 31 95 100 53 65 90 21 40 100 100 100 100 15 38 11 100 100 100 95 100 100 100 100 100 100 90 47
100 98 92 39 95 53 86 100 100 100 100 31 3 4 5 42 31 99 36 86 56 8 5 74 100 100 100 100 100 50 44 83 20 22 71 100 100 100 100 100 100 75 77 100
100 100 70 48 20 5 12 19 14 7 29 71 100 95 34 11 7 93 90 60 30 78 100 100 100 100 100 100 100 100 100 35 41 100 100 100 100 100 100 92 85 46 9 33
100 92 90 99 100 100 100 100 100 100 100 100 100 84 63 30 24 24 5 5 5 100 100 100 100 100 100 96 100 100 100 100 100 100 100 100 100 94 100 82 40 47 66 99